Time,TemperatureF,DewpointF,PressureIn,WindDirection,WindDirectionDegrees,WindSpeedMPH,WindSpeedGustMPH,Humidity,HourlyPrecipIn,Conditions,Clouds,dailyrainin,SoftwareType,DateUTC
2013-06-07 00:02:00,60.4,41.7,30.62,North,0,0.0,0.0,50,0.00,,---,0.00,VWS V13.01,2013-06-07 07:02:00,
2013-06-07 00:07:00,60.1,41.9,30.62,North,0,0.0,0.0,51,0.00,,---,0.00,VWS V13.01,2013-06-07 07:07:00,
2013-06-07 00:12:00,59.9,43.2,30.65,North,0,0.0,0.0,54,0.00,,---,0.00,VWS V13.01,2013-06-07 07:12:00,
2013-06-07 00:17:00,59.5,42.9,30.65,North,0,0.0,0.0,54,0.00,,---,0.00,VWS V13.01,2013-06-07 07:17:00,
2013-06-07 00:22:00,59.5,42.4,30.65,North,0,0.0,0.0,53,0.00,,---,0.00,VWS V13.01,2013-06-07 07:22:00,
2013-06-07 00:27:00,58.6,41.6,30.62,North,0,0.0,2.7,53,0.00,,---,0.00,VWS V13.01,2013-06-07 07:27:00,
2013-06-07 00:32:00,58.3,42.2,30.62,North,0,2.2,2.2,55,0.00,,---,0.00,VWS V13.01,2013-06-07 07:32:00,
2013-06-07 00:37:00,58.1,43.4,30.62,North,0,0.0,0.0,58,0.00,,---,0.00,VWS V13.01,2013-06-07 07:37:00,
2013-06-07 00:42:00,58.1,43.4,30.62,North,0,0.0,0.0,58,0.00,,---,0.00,VWS V13.01,2013-06-07 07:42:00,
2013-06-07 00:47:00,57.6,42.5,30.62,North,0,0.0,0.0,57,0.00,,---,0.00,VWS V13.01,2013-06-07 07:47:00,
2013-06-07 00:52:00,57.2,43.5,30.62,North,0,0.0,0.0,60,0.00,,---,0.00,VWS V13.01,2013-06-07 07:52:00,
2013-06-07 00:57:00,56.8,43.1,30.62,North,0,0.0,0.0,60,0.00,,---,0.00,VWS V13.01,2013-06-07 07:57:00,
2013-06-07 01:02:00,56.8,43.1,30.62,North,0,0.0,0.0,60,0.00,,---,0.00,VWS V13.01,2013-06-07 08:02:00,
2013-06-07 01:07:00,55.4,41.3,30.62,North,0,0.0,0.0,59,0.00,,---,0.00,VWS V13.01,2013-06-07 08:07:00,
2013-06-07 01:12:00,55.2,41.2,30.65,North,0,0.0,0.0,59,0.00,,---,0.00,VWS V13.01,2013-06-07 08:12:00,
2013-06-07 01:17:00,55.2,41.2,30.65,North,0,0.0,0.0,59,0.00,,---,0.00,VWS V13.01,2013-06-07 08:17:00,
2013-06-07 01:22:00,55.2,41.2,30.65,North,0,0.0,0.0,59,0.00,,---,0.00,VWS V13.01,2013-06-07 08:22:00,
2013-06-07 01:27:00,55.2,41.2,30.65,North,0,0.0,0.0,59,0.00,,---,0.00,VWS V13.01,2013-06-07 08:27:00,
2013-06-07 01:32:00,55.2,41.2,30.65,North,0,0.0,0.0,59,0.00,,---,0.00,VWS V13.01,2013-06-07 08:32:00,
2013-06-07 01:37:00,54.5,44.5,30.65,North,0,0.0,0.0,69,0.00,,---,0.00,VWS V13.01,2013-06-07 08:37:00,
2013-06-07 01:42:00,54.1,44.2,30.62,North,0,0.0,0.0,69,0.00,,---,0.00,VWS V13.01,2013-06-07 08:42:00,
2013-06-07 01:47:00,54.0,44.0,30.62,North,0,2.7,2.7,69,0.00,,---,0.00,VWS V13.01,2013-06-07 08:47:00,
2013-06-07 01:52:00,54.9,44.5,30.62,North,0,2.2,2.2,68,0.00,,---,0.00,VWS V13.01,2013-06-07 08:52:00,
2013-06-07 01:57:00,54.5,44.2,30.62,North,0,0.0,0.0,68,0.00,,---,0.00,VWS V13.01,2013-06-07 08:57:00,
2013-06-07 02:02:00,54.1,44.6,30.65,North,0,0.0,0.0,70,0.00,,---,0.00,VWS V13.01,2013-06-07 09:02:00,
2013-06-07 02:07:00,53.6,44.4,30.65,North,0,0.0,0.0,71,0.00,,---,0.00,VWS V13.01,2013-06-07 09:07:00,
2013-06-07 02:12:00,53.1,43.2,30.62,North,0,0.0,0.0,69,0.00,,---,0.00,VWS V13.01,2013-06-07 09:12:00,
2013-06-07 02:17:00,52.7,42.8,30.62,North,0,0.0,0.0,69,0.00,,---,0.00,VWS V13.01,2013-06-07 09:17:00,
2013-06-07 02:22:00,52.2,43.1,30.62,North,0,0.0,0.0,71,0.00,,---,0.00,VWS V13.01,2013-06-07 09:22:00,
2013-06-07 02:27:00,52.2,43.4,30.62,North,0,0.0,0.0,72,0.00,,---,0.00,VWS V13.01,2013-06-07 09:27:00,
2013-06-07 02:32:00,52.0,44.3,30.62,North,0,0.0,0.0,75,0.00,,---,0.00,VWS V13.01,2013-06-07 09:32:00,
2013-06-07 02:37:00,51.6,44.3,30.62,North,0,0.0,0.0,76,0.00,,---,0.00,VWS V13.01,2013-06-07 09:37:00,
2013-06-07 02:42:00,51.3,44.0,30.62,North,0,0.0,0.0,76,0.00,,---,0.00,VWS V13.01,2013-06-07 09:42:00,
2013-06-07 02:47:00,50.9,43.3,30.62,North,0,2.2,2.2,75,0.00,,---,0.00,VWS V13.01,2013-06-07 09:47:00,
2013-06-07 02:52:00,51.6,45.3,30.62,North,0,0.0,0.0,79,0.00,,---,0.00,VWS V13.01,2013-06-07 09:52:00,
2013-06-07 02:57:00,51.6,46.3,30.65,North,0,0.0,0.0,82,0.00,,---,0.00,VWS V13.01,2013-06-07 09:57:00,
2013-06-07 03:02:00,52.0,47.0,30.65,North,0,0.0,0.0,83,0.00,,---,0.00,VWS V13.01,2013-06-07 10:02:00,
2013-06-07 03:07:00,51.6,46.6,30.65,North,0,0.0,0.0,83,0.00,,---,0.00,VWS V13.01,2013-06-07 10:07:00,
2013-06-07 03:12:00,51.8,46.8,30.65,North,0,0.0,0.0,83,0.00,,---,0.00,VWS V13.01,2013-06-07 10:12:00,
2013-06-07 03:17:00,52.5,47.8,30.65,North,0,0.0,0.0,84,0.00,,---,0.00,VWS V13.01,2013-06-07 10:17:00,
2013-06-07 03:22:00,51.8,46.5,30.65,North,0,0.0,0.0,82,0.00,,---,0.00,VWS V13.01,2013-06-07 10:22:00,
2013-06-07 03:27:00,51.4,46.1,30.65,North,0,0.0,0.0,82,0.00,,---,0.00,VWS V13.01,2013-06-07 10:27:00,
2013-06-07 03:32:00,50.7,45.1,30.65,North,0,0.0,0.0,81,0.00,,---,0.00,VWS V13.01,2013-06-07 10:32:00,
2013-06-07 03:37:00,50.9,45.9,30.65,North,0,0.0,0.0,83,0.00,,---,0.00,VWS V13.01,2013-06-07 10:37:00,
2013-06-07 03:42:00,50.9,46.6,30.65,North,0,0.0,0.0,85,0.00,,---,0.00,VWS V13.01,2013-06-07 10:42:00,
2013-06-07 03:47:00,51.1,47.3,30.65,North,0,0.0,0.0,87,0.00,,---,0.00,VWS V13.01,2013-06-07 10:47:00,
2013-06-07 03:52:00,51.3,47.8,30.65,North,0,0.0,0.0,88,0.00,,---,0.00,VWS V13.01,2013-06-07 10:52:00,
2013-06-07 03:57:00,51.3,47.8,30.65,North,0,0.0,0.0,88,0.00,,---,0.00,VWS V13.01,2013-06-07 10:57:00,
2013-06-07 04:02:00,51.3,47.2,30.65,North,0,0.0,0.0,86,0.00,,---,0.00,VWS V13.01,2013-06-07 11:02:00,
2013-06-07 04:07:00,50.9,46.6,30.65,North,0,0.0,0.0,85,0.00,,---,0.00,VWS V13.01,2013-06-07 11:07:00,
2013-06-07 04:12:00,50.7,46.4,30.65,North,0,0.0,0.0,85,0.00,,---,0.00,VWS V13.01,2013-06-07 11:12:00,
2013-06-07 04:17:00,50.5,46.5,30.65,North,0,0.0,0.0,86,0.00,,---,0.00,VWS V13.01,2013-06-07 11:17:00,
2013-06-07 04:22:00,50.5,46.5,30.65,North,0,0.0,0.0,86,0.00,,---,0.00,VWS V13.01,2013-06-07 11:22:00,
2013-06-07 04:27:00,50.2,46.2,30.65,North,0,0.0,0.0,86,0.00,,---,0.00,VWS V13.01,2013-06-07 11:27:00,
2013-06-07 04:32:00,50.4,47.0,30.65,North,0,0.0,0.0,88,0.00,,---,0.00,VWS V13.01,2013-06-07 11:32:00,
2013-06-07 04:37:00,50.2,47.1,30.65,North,0,0.0,0.0,89,0.00,,---,0.00,VWS V13.01,2013-06-07 11:37:00,
2013-06-07 04:42:00,50.4,47.2,30.65,North,0,0.0,0.0,89,0.00,,---,0.00,VWS V13.01,2013-06-07 11:42:00,
2013-06-07 04:47:00,49.6,46.2,30.65,North,0,0.0,0.0,88,0.00,,---,0.00,VWS V13.01,2013-06-07 11:47:00,
2013-06-07 04:52:00,49.6,46.2,30.65,North,0,0.0,0.0,88,0.00,,---,0.00,VWS V13.01,2013-06-07 11:52:00,
2013-06-07 04:57:00,49.3,46.2,30.65,North,0,0.0,0.0,89,0.00,,---,0.00,VWS V13.01,2013-06-07 11:57:00,
2013-06-07 05:02:00,48.6,45.5,30.65,North,0,0.0,0.0,89,0.00,,---,0.00,VWS V13.01,2013-06-07 12:02:00,
2013-06-07 05:07:00,48.4,45.6,30.65,North,0,0.0,0.0,90,0.00,,---,0.00,VWS V13.01,2013-06-07 12:07:00,
2013-06-07 05:12:00,48.4,45.9,30.65,North,0,0.0,0.0,91,0.00,,---,0.00,VWS V13.01,2013-06-07 12:12:00,
2013-06-07 05:17:00,48.2,46.0,30.65,North,0,0.0,0.0,92,0.00,,---,0.00,VWS V13.01,2013-06-07 12:17:00,
2013-06-07 05:22:00,48.6,46.6,30.65,North,0,0.0,0.0,93,0.00,,---,0.00,VWS V13.01,2013-06-07 12:22:00,
2013-06-07 05:27:00,48.0,46.4,30.65,North,0,0.0,0.0,94,0.00,,---,0.00,VWS V13.01,2013-06-07 12:27:00,
2013-06-07 05:32:00,48.0,46.7,30.65,North,0,0.0,0.0,95,0.00,,---,0.00,VWS V13.01,2013-06-07 12:32:00,
2013-06-07 05:37:00,48.0,46.7,30.65,North,0,0.0,0.0,95,0.00,,---,0.00,VWS V13.01,2013-06-07 12:37:00,
2013-06-07 05:42:00,48.7,47.7,30.65,North,0,0.0,0.0,96,0.00,,---,0.00,VWS V13.01,2013-06-07 12:42:00,
2013-06-07 05:47:00,49.8,48.7,30.65,North,0,0.0,0.0,96,0.00,,---,0.00,VWS V13.01,2013-06-07 12:47:00,
2013-06-07 05:52:00,49.5,48.4,30.65,North,0,0.0,0.0,96,0.00,,---,0.00,VWS V13.01,2013-06-07 12:52:00,
2013-06-07 05:57:00,51.8,50.7,30.65,North,0,0.0,0.0,96,0.00,,---,0.00,VWS V13.01,2013-06-07 12:57:00,
2013-06-07 06:02:00,51.3,50.2,30.65,North,0,0.0,0.0,96,0.00,,---,0.00,VWS V13.01,2013-06-07 13:02:00,
2013-06-07 06:07:00,51.4,50.1,30.65,North,0,0.0,0.0,95,0.00,,---,0.00,VWS V13.01,2013-06-07 13:07:00,
2013-06-07 06:12:00,51.1,48.8,30.68,North,0,0.0,0.0,92,0.00,,---,0.00,VWS V13.01,2013-06-07 13:12:00,
2013-06-07 06:17:00,50.9,48.1,30.68,North,0,0.0,0.0,90,0.00,,---,0.00,VWS V13.01,2013-06-07 13:17:00,
2013-06-07 06:22:00,50.5,47.1,30.68,North,0,0.0,0.0,88,0.00,,---,0.00,VWS V13.01,2013-06-07 13:22:00,
2013-06-07 06:27:00,51.3,47.5,30.68,North,0,0.0,0.0,87,0.00,,---,0.00,VWS V13.01,2013-06-07 13:27:00,
2013-06-07 06:32:00,51.3,47.5,30.68,North,0,0.0,0.0,87,0.00,,---,0.00,VWS V13.01,2013-06-07 13:32:00,
2013-06-07 06:37:00,54.7,51.8,30.68,North,0,0.0,0.0,90,0.00,,---,0.00,VWS V13.01,2013-06-07 13:37:00,
2013-06-07 06:42:00,56.1,52.3,30.68,SW,225,0.0,3.1,87,0.00,,---,0.00,VWS V13.01,2013-06-07 13:42:00,
2013-06-07 06:47:00,56.1,51.7,30.68,SW,225,0.0,0.0,85,0.00,,---,0.00,VWS V13.01,2013-06-07 13:47:00,
2013-06-07 06:52:00,57.2,50.4,30.68,SW,225,0.0,2.7,78,0.00,,---,0.00,VWS V13.01,2013-06-07 13:52:00,
2013-06-07 06:57:00,57.2,50.4,30.68,SW,225,0.0,0.0,78,0.00,,---,0.00,VWS V13.01,2013-06-07 13:57:00,
2013-06-07 07:02:00,58.3,50.0,30.68,SW,225,0.0,0.0,74,0.00,,---,0.00,VWS V13.01,2013-06-07 14:02:00,
2013-06-07 07:07:00,58.3,50.0,30.68,SW,225,3.1,3.1,74,0.00,,---,0.00,VWS V13.01,2013-06-07 14:07:00,
2013-06-07 07:12:00,60.1,49.5,30.68,SW,225,4.9,4.9,68,0.00,,---,0.00,VWS V13.01,2013-06-07 14:12:00,
2013-06-07 07:17:00,60.1,49.5,30.68,SW,225,2.2,2.2,68,0.00,,---,0.00,VWS V13.01,2013-06-07 14:17:00,
2013-06-07 07:22:00,60.1,49.5,30.68,SW,225,0.0,2.2,68,0.00,,---,0.00,VWS V13.01,2013-06-07 14:22:00,
2013-06-07 07:27:00,61.3,49.1,30.68,SW,225,2.7,2.7,64,0.00,,---,0.00,VWS V13.01,2013-06-07 14:27:00,
2013-06-07 07:32:00,61.3,49.1,30.68,SW,225,3.6,3.6,64,0.00,,---,0.00,VWS V13.01,2013-06-07 14:32:00,
2013-06-07 07:37:00,62.2,48.6,30.68,SW,225,3.6,3.6,61,0.00,,---,0.00,VWS V13.01,2013-06-07 14:37:00,
2013-06-07 07:42:00,63.0,48.9,30.68,SW,225,3.1,3.1,60,0.00,,---,0.00,VWS V13.01,2013-06-07 14:42:00,
2013-06-07 07:47:00,63.0,48.9,30.68,West,270,0.0,3.1,60,0.00,,---,0.00,VWS V13.01,2013-06-07 14:47:00,
2013-06-07 07:52:00,63.0,48.9,30.68,West,270,2.2,2.2,60,0.00,,---,0.00,VWS V13.01,2013-06-07 14:52:00,
2013-06-07 07:57:00,63.0,48.9,30.68,West,270,2.2,2.2,60,0.00,,---,0.00,VWS V13.01,2013-06-07 14:57:00,
2013-06-07 08:02:00,63.0,48.9,30.68,West,270,2.2,2.2,60,0.00,,---,0.00,VWS V13.01,2013-06-07 15:02:00,
2013-06-07 08:07:00,63.0,48.9,30.68,West,270,0.0,0.0,60,0.00,,---,0.00,VWS V13.01,2013-06-07 15:07:00,
2013-06-07 08:12:00,63.0,48.9,30.68,West,270,2.7,2.7,60,0.00,,---,0.00,VWS V13.01,2013-06-07 15:12:00,
2013-06-07 08:17:00,68.0,45.9,30.68,SW,225,0.0,4.0,45,0.00,,---,0.00,VWS V13.01,2013-06-07 15:17:00,
2013-06-07 08:22:00,68.0,45.9,30.68,NW,315,0.0,0.0,45,0.00,,---,0.00,VWS V13.01,2013-06-07 15:22:00,
2013-06-07 08:27:00,68.0,45.9,30.68,NW,315,2.2,2.7,45,0.00,,---,0.00,VWS V13.01,2013-06-07 15:27:00,
2013-06-07 08:32:00,68.0,45.9,30.68,NW,315,0.0,0.0,45,0.00,,---,0.00,VWS V13.01,2013-06-07 15:32:00,
2013-06-07 08:37:00,68.0,45.9,30.68,South,180,0.0,2.7,45,0.00,,---,0.00,VWS V13.01,2013-06-07 15:37:00,
2013-06-07 08:42:00,68.0,45.9,30.68,South,180,0.0,0.0,45,0.00,,---,0.00,VWS V13.01,2013-06-07 15:42:00,
2013-06-07 08:47:00,71.6,42.5,30.68,West,270,2.7,3.6,35,0.00,,---,0.00,VWS V13.01,2013-06-07 15:47:00,
2013-06-07 08:52:00,72.1,43.0,30.68,WNW,292,0.0,0.0,35,0.00,,---,0.00,VWS V13.01,2013-06-07 15:52:00,
2013-06-07 08:57:00,72.7,42.7,30.68,NW,315,0.0,0.0,34,0.00,,---,0.00,VWS V13.01,2013-06-07 15:57:00,
2013-06-07 09:02:00,72.1,42.2,30.68,SW,225,4.9,5.4,34,0.00,,---,0.00,VWS V13.01,2013-06-07 16:02:00,
2013-06-07 09:07:00,72.1,42.2,30.68,WSW,248,6.3,6.3,34,0.00,,---,0.00,VWS V13.01,2013-06-07 16:07:00,
2013-06-07 09:12:00,72.1,42.2,30.68,West,270,5.8,5.8,34,0.00,,---,0.00,VWS V13.01,2013-06-07 16:12:00,
2013-06-07 09:17:00,72.9,42.1,30.68,West,270,3.6,4.9,33,0.00,,---,0.00,VWS V13.01,2013-06-07 16:17:00,
2013-06-07 09:22:00,73.0,42.3,30.68,West,270,4.0,4.0,33,0.00,,---,0.00,VWS V13.01,2013-06-07 16:22:00,
2013-06-07 09:27:00,73.6,41.9,30.68,North,0,4.0,4.0,32,0.00,,---,0.00,VWS V13.01,2013-06-07 16:27:00,
2013-06-07 09:32:00,73.9,42.2,30.68,SW,225,3.1,3.1,32,0.00,,---,0.00,VWS V13.01,2013-06-07 16:32:00,
2013-06-07 09:37:00,73.9,42.2,30.68,SW,225,3.6,3.6,32,0.00,,---,0.00,VWS V13.01,2013-06-07 16:37:00,
2013-06-07 09:42:00,73.8,41.3,30.68,SW,225,2.7,2.7,31,0.00,,---,0.00,VWS V13.01,2013-06-07 16:42:00,
2013-06-07 09:47:00,74.3,41.7,30.68,North,0,3.1,4.9,31,0.00,,---,0.00,VWS V13.01,2013-06-07 16:47:00,
2013-06-07 09:52:00,75.4,42.7,30.68,North,0,3.1,5.8,31,0.00,,---,0.00,VWS V13.01,2013-06-07 16:52:00,
2013-06-07 09:57:00,74.7,42.0,30.68,NNE,22,6.7,7.2,31,0.00,,---,0.00,VWS V13.01,2013-06-07 16:57:00,
2013-06-07 10:02:00,75.4,42.7,30.65,NE,45,6.3,6.3,31,0.00,,---,0.00,VWS V13.01,2013-06-07 17:02:00,
2013-06-07 10:07:00,75.6,42.8,30.65,NE,45,9.6,9.6,31,0.00,,---,0.00,VWS V13.01,2013-06-07 17:07:00,
2013-06-07 10:12:00,74.5,41.0,30.65,NE,45,5.8,7.2,30,0.00,,---,0.00,VWS V13.01,2013-06-07 17:12:00,
2013-06-07 10:17:00,75.2,42.5,30.65,NNW,338,6.7,6.7,31,0.00,,---,0.00,VWS V13.01,2013-06-07 17:17:00,
2013-06-07 10:22:00,75.9,41.4,30.65,North,0,5.4,6.3,29,0.00,,---,0.00,VWS V13.01,2013-06-07 17:22:00,
2013-06-07 10:27:00,75.2,40.8,30.65,NE,45,7.6,7.6,29,0.00,,---,0.00,VWS V13.01,2013-06-07 17:27:00,
2013-06-07 10:32:00,75.2,40.8,30.65,NE,45,4.0,4.0,29,0.00,,---,0.00,VWS V13.01,2013-06-07 17:32:00,
2013-06-07 10:37:00,75.2,40.8,30.65,West,270,3.1,5.4,29,0.00,,---,0.00,VWS V13.01,2013-06-07 17:37:00,
2013-06-07 10:42:00,77.4,41.7,30.65,NNE,22,3.1,3.1,28,0.00,,---,0.00,VWS V13.01,2013-06-07 17:42:00,
2013-06-07 10:47:00,77.5,41.0,30.65,West,270,4.0,4.0,27,0.00,,---,0.00,VWS V13.01,2013-06-07 17:47:00,
2013-06-07 10:52:00,77.5,41.0,30.65,SE,135,2.7,2.7,27,0.00,,---,0.00,VWS V13.01,2013-06-07 17:52:00,
2013-06-07 10:57:00,78.6,43.7,30.65,North,0,4.9,5.4,29,0.00,,---,0.00,VWS V13.01,2013-06-07 17:57:00,
2013-06-07 11:02:00,78.8,42.0,30.65,SW,225,4.0,4.0,27,0.00,,---,0.00,VWS V13.01,2013-06-07 18:02:00,
2013-06-07 11:07:00,78.4,40.8,30.65,West,270,9.2,9.2,26,0.00,,---,0.00,VWS V13.01,2013-06-07 18:07:00,
2013-06-07 11:12:00,78.4,40.8,30.65,West,270,3.6,3.6,26,0.00,,---,0.00,VWS V13.01,2013-06-07 18:12:00,
2013-06-07 11:18:00,79.9,42.0,30.65,SW,225,8.1,8.1,26,0.00,,---,0.00,VWS V13.01,2013-06-07 18:18:00,
2013-06-07 11:23:00,79.9,42.0,30.65,North,0,3.6,3.6,26,0.00,,---,0.00,VWS V13.01,2013-06-07 18:23:00,
2013-06-07 11:28:00,79.9,42.0,30.65,North,0,7.6,7.6,26,0.00,,---,0.00,VWS V13.01,2013-06-07 18:28:00,
2013-06-07 11:33:00,79.9,42.0,30.65,North,0,8.7,8.7,26,0.00,,---,0.00,VWS V13.01,2013-06-07 18:33:00,
2013-06-07 11:38:00,78.4,41.7,30.65,NE,45,7.2,7.2,27,0.00,,---,0.00,VWS V13.01,2013-06-07 18:38:00,
2013-06-07 11:43:00,78.1,41.4,30.65,NW,315,5.8,5.8,27,0.00,,---,0.00,VWS V13.01,2013-06-07 18:43:00,
2013-06-07 11:48:00,79.0,42.2,30.65,North,0,5.4,7.6,27,0.00,,---,0.00,VWS V13.01,2013-06-07 18:48:00,
2013-06-07 11:54:00,80.4,42.4,30.65,West,270,11.0,11.0,26,0.00,,---,0.00,VWS V13.01,2013-06-07 18:54:00,
2013-06-07 11:59:00,81.0,42.9,30.65,NNE,22,8.3,8.3,26,0.00,,---,0.00,VWS V13.01,2013-06-07 18:59:00,
2013-06-07 12:04:00,80.8,42.7,30.65,West,270,4.0,4.0,26,0.00,,---,0.00,VWS V13.01,2013-06-07 19:04:00,
2013-06-07 12:09:00,80.8,42.7,30.65,North,0,4.9,8.3,26,0.00,,---,0.00,VWS V13.01,2013-06-07 19:09:00,
2013-06-07 12:14:00,80.2,43.3,30.65,NNE,22,4.9,8.1,27,0.00,,---,0.00,VWS V13.01,2013-06-07 19:14:00,
2013-06-07 12:19:00,80.1,43.1,30.65,NE,45,8.7,13.2,27,0.00,,---,0.00,VWS V13.01,2013-06-07 19:19:00,
2013-06-07 12:25:00,79.5,44.5,30.65,North,0,9.2,9.2,29,0.00,,---,0.00,VWS V13.01,2013-06-07 19:25:00,
2013-06-07 12:30:00,79.3,43.4,30.65,North,0,8.1,8.1,28,0.00,,---,0.00,VWS V13.01,2013-06-07 19:30:00,
2013-06-07 12:35:00,80.2,44.2,30.65,WNW,292,2.7,2.7,28,0.00,,---,0.00,VWS V13.01,2013-06-07 19:35:00,
2013-06-07 12:40:00,80.8,44.7,30.65,NW,315,7.2,8.3,28,0.00,,---,0.00,VWS V13.01,2013-06-07 19:40:00,
2013-06-07 12:45:00,81.0,43.9,30.65,West,270,3.1,7.6,27,0.00,,---,0.00,VWS V13.01,2013-06-07 19:45:00,
2013-06-07 12:51:00,81.0,43.9,30.65,NW,315,5.8,5.8,27,0.00,,---,0.00,VWS V13.01,2013-06-07 19:51:00,
2013-06-07 12:56:00,81.5,44.3,30.65,NW,315,5.8,6.3,27,0.00,,---,0.00,VWS V13.01,2013-06-07 19:56:00,
2013-06-07 13:01:00,81.5,44.3,30.65,ENE,68,5.8,8.7,27,0.00,,---,0.00,VWS V13.01,2013-06-07 20:01:00,
2013-06-07 13:05:00,81.0,44.8,30.65,North,0,5.4,8.3,28,0.00,,---,0.00,VWS V13.01,2013-06-07 20:05:00,
2013-06-07 13:11:00,81.0,43.9,30.65,North,0,6.3,7.6,27,0.00,,---,0.00,VWS V13.01,2013-06-07 20:11:00,
2013-06-07 13:16:00,81.7,44.5,30.65,North,0,4.9,4.9,27,0.00,,---,0.00,VWS V13.01,2013-06-07 20:16:00,
2013-06-07 13:21:00,81.7,44.5,30.65,NE,45,7.6,10.1,27,0.00,,---,0.00,VWS V13.01,2013-06-07 20:21:00,
2013-06-07 13:26:00,81.9,46.5,30.65,West,270,4.0,10.1,29,0.00,,---,0.00,VWS V13.01,2013-06-07 20:26:00,
2013-06-07 13:31:00,81.3,44.2,30.62,NE,45,8.7,8.7,27,0.00,,---,0.00,VWS V13.01,2013-06-07 20:31:00,
2013-06-07 13:36:00,81.3,44.2,30.62,North,0,7.6,7.6,27,0.00,,---,0.00,VWS V13.01,2013-06-07 20:36:00,
2013-06-07 13:42:00,82.6,44.3,30.62,West,270,6.3,6.3,26,0.00,,---,0.00,VWS V13.01,2013-06-07 20:42:00,
2013-06-07 13:47:00,82.9,44.6,30.62,North,0,4.5,4.5,26,0.00,,---,0.00,VWS V13.01,2013-06-07 20:47:00,
2013-06-07 13:52:00,82.9,44.6,30.62,NNE,22,10.1,10.1,26,0.00,,---,0.00,VWS V13.01,2013-06-07 20:52:00,
2013-06-07 13:57:00,81.5,44.3,30.62,NW,315,5.4,5.4,27,0.00,,---,0.00,VWS V13.01,2013-06-07 20:57:00,
2013-06-07 14:02:00,81.7,44.5,30.62,North,0,4.0,6.3,27,0.00,,---,0.00,VWS V13.01,2013-06-07 21:02:00,
2013-06-07 14:07:00,81.7,44.5,30.62,North,0,2.2,2.2,27,0.00,,---,0.00,VWS V13.01,2013-06-07 21:07:00,
2013-06-07 14:12:00,81.7,44.5,30.62,NNE,22,5.4,15.4,27,0.00,,---,0.00,VWS V13.01,2013-06-07 21:12:00,
2013-06-07 14:17:00,83.7,45.2,30.62,North,0,7.2,7.2,26,0.00,,---,0.00,VWS V13.01,2013-06-07 21:17:00,
2013-06-07 14:23:00,83.1,44.7,30.62,North,0,3.6,3.6,26,0.00,,---,0.00,VWS V13.01,2013-06-07 21:23:00,
2013-06-07 14:28:00,83.8,45.3,30.62,West,270,7.6,7.6,26,0.00,,---,0.00,VWS V13.01,2013-06-07 21:28:00,
2013-06-07 14:33:00,84.7,46.1,30.62,North,0,5.8,5.8,26,0.00,,---,0.00,VWS V13.01,2013-06-07 21:33:00,
2013-06-07 14:38:00,83.5,46.0,30.62,North,0,5.8,5.8,27,0.00,,---,0.00,VWS V13.01,2013-06-07 21:38:00,
2013-06-07 14:43:00,83.7,46.2,30.62,NE,45,8.3,8.3,27,0.00,,---,0.00,VWS V13.01,2013-06-07 21:43:00,
2013-06-07 14:48:00,83.5,46.0,30.62,WNW,292,8.1,11.0,27,0.00,,---,0.00,VWS V13.01,2013-06-07 21:48:00,
2013-06-07 14:53:00,83.8,45.3,30.62,North,0,5.8,10.5,26,0.00,,---,0.00,VWS V13.01,2013-06-07 21:53:00,
2013-06-07 14:59:00,83.8,45.3,30.62,North,0,4.9,7.2,26,0.00,,---,0.00,VWS V13.01,2013-06-07 21:59:00,
2013-06-07 15:04:00,84.6,44.9,30.62,North,0,7.2,7.2,25,0.00,,---,0.00,VWS V13.01,2013-06-07 22:04:00,
2013-06-07 15:09:00,84.6,44.9,30.62,North,0,8.1,8.1,25,0.00,,---,0.00,VWS V13.01,2013-06-07 22:09:00,
2013-06-07 15:14:00,84.6,44.9,30.62,North,0,12.3,13.2,25,0.00,,---,0.00,VWS V13.01,2013-06-07 22:14:00,
2013-06-07 15:19:00,83.1,44.7,30.62,NE,45,11.4,12.3,26,0.00,,---,0.00,VWS V13.01,2013-06-07 22:19:00,
2013-06-07 15:24:00,83.1,44.7,30.62,North,0,11.0,15.9,26,0.00,,---,0.00,VWS V13.01,2013-06-07 22:24:00,
2013-06-07 15:29:00,83.3,44.9,30.62,NNE,22,8.7,8.7,26,0.00,,---,0.00,VWS V13.01,2013-06-07 22:29:00,
2013-06-07 15:34:00,82.6,45.2,30.62,North,0,10.1,11.0,27,0.00,,---,0.00,VWS V13.01,2013-06-07 22:34:00,
2013-06-07 15:40:00,84.0,44.5,30.62,North,0,9.2,9.2,25,0.00,,---,0.00,VWS V13.01,2013-06-07 22:40:00,
2013-06-07 15:45:00,84.2,44.6,30.62,North,0,6.3,6.3,25,0.00,,---,0.00,VWS V13.01,2013-06-07 22:45:00,
2013-06-07 15:50:00,83.1,42.6,30.62,NE,45,8.1,11.0,24,0.00,,---,0.00,VWS V13.01,2013-06-07 22:50:00,
2013-06-07 15:55:00,82.9,42.5,30.62,NE,45,9.6,13.2,24,0.00,,---,0.00,VWS V13.01,2013-06-07 22:55:00,
2013-06-07 16:00:00,82.9,42.5,30.62,North,0,5.4,8.1,24,0.00,,---,0.00,VWS V13.01,2013-06-07 23:00:00,
2013-06-07 16:05:00,83.3,43.8,30.62,North,0,7.2,7.2,25,0.00,,---,0.00,VWS V13.01,2013-06-07 23:05:00,
2013-06-07 16:10:00,83.5,42.9,30.62,North,0,12.8,12.8,24,0.00,,---,0.00,VWS V13.01,2013-06-07 23:10:00,
2013-06-07 16:15:00,83.5,42.9,30.62,North,0,7.6,7.6,24,0.00,,---,0.00,VWS V13.01,2013-06-07 23:15:00,
2013-06-07 16:21:00,83.7,43.1,30.62,NNW,338,8.3,8.3,24,0.00,,---,0.00,VWS V13.01,2013-06-07 23:21:00,
2013-06-07 16:27:00,83.7,43.1,30.62,NNE,22,8.1,8.1,24,0.00,,---,0.00,VWS V13.01,2013-06-07 23:27:00,
2013-06-07 16:32:00,82.6,41.1,30.59,North,0,5.8,8.7,23,0.00,,---,0.00,VWS V13.01,2013-06-07 23:32:00,
2013-06-07 16:37:00,82.6,41.1,30.59,North,0,8.7,9.2,23,0.00,,---,0.00,VWS V13.01,2013-06-07 23:37:00,
2013-06-07 16:42:00,82.8,42.3,30.59,NW,315,7.6,8.1,24,0.00,,---,0.00,VWS V13.01,2013-06-07 23:42:00,
2013-06-07 16:47:00,82.8,41.2,30.59,North,0,10.1,10.1,23,0.00,,---,0.00,VWS V13.01,2013-06-07 23:47:00,
2013-06-07 16:52:00,82.8,41.2,30.59,North,0,8.7,8.7,23,0.00,,---,0.00,VWS V13.01,2013-06-07 23:52:00,
2013-06-07 16:57:00,82.8,42.3,30.59,North,0,13.6,13.6,24,0.00,,---,0.00,VWS V13.01,2013-06-07 23:57:00,
2013-06-07 17:02:00,82.2,41.9,30.62,North,0,8.3,8.3,24,0.00,,---,0.00,VWS V13.01,2013-06-08 00:02:00,
2013-06-07 17:07:00,82.8,42.3,30.62,NNE,22,8.3,8.3,24,0.00,,---,0.00,VWS V13.01,2013-06-08 00:07:00,
2013-06-07 17:12:00,81.7,42.5,30.62,North,0,9.6,12.8,25,0.00,,---,0.00,VWS V13.01,2013-06-08 00:12:00,
2013-06-07 17:18:00,81.1,42.0,30.62,NE,45,10.1,15.4,25,0.00,,---,0.00,VWS V13.01,2013-06-08 00:18:00,
2013-06-07 17:23:00,81.3,43.2,30.59,NNE,22,9.6,9.6,26,0.00,,---,0.00,VWS V13.01,2013-06-08 00:23:00,
2013-06-07 17:28:00,81.5,42.3,30.59,NE,45,12.3,12.3,25,0.00,,---,0.00,VWS V13.01,2013-06-08 00:28:00,
2013-06-07 17:34:00,81.1,42.0,30.59,North,0,8.1,10.5,25,0.00,,---,0.00,VWS V13.01,2013-06-08 00:34:00,
2013-06-07 17:39:00,81.5,42.3,30.59,NE,45,12.8,12.8,25,0.00,,---,0.00,VWS V13.01,2013-06-08 00:39:00,
2013-06-07 17:44:00,81.0,41.9,30.59,North,0,7.6,7.6,25,0.00,,---,0.00,VWS V13.01,2013-06-08 00:44:00,
2013-06-07 17:49:00,81.1,41.0,30.59,North,0,7.2,7.2,24,0.00,,---,0.00,VWS V13.01,2013-06-08 00:49:00,
2013-06-07 17:54:00,81.0,40.8,30.59,NE,45,14.5,20.1,24,0.00,,---,0.00,VWS V13.01,2013-06-08 00:54:00,
2013-06-07 17:59:00,80.8,40.7,30.59,North,0,10.1,13.6,24,0.00,,---,0.00,VWS V13.01,2013-06-08 00:59:00,
2013-06-07 18:05:00,80.6,41.6,30.59,North,0,8.1,8.1,25,0.00,,---,0.00,VWS V13.01,2013-06-08 01:05:00,
2013-06-07 18:10:00,80.8,41.7,30.59,North,0,9.2,9.2,25,0.00,,---,0.00,VWS V13.01,2013-06-08 01:10:00,
2013-06-07 18:15:00,80.8,41.7,30.59,North,0,7.2,10.5,25,0.00,,---,0.00,VWS V13.01,2013-06-08 01:15:00,
2013-06-07 18:20:00,79.5,41.7,30.59,ENE,68,12.3,12.3,26,0.00,,---,0.00,VWS V13.01,2013-06-08 01:20:00,
2013-06-07 18:25:00,78.8,41.0,30.59,North,0,7.6,9.6,26,0.00,,---,0.00,VWS V13.01,2013-06-08 01:25:00,
2013-06-07 18:30:00,78.4,41.7,30.59,NNE,22,7.2,10.1,27,0.00,,---,0.00,VWS V13.01,2013-06-08 01:30:00,
2013-06-07 18:36:00,78.6,41.9,30.59,West,270,5.4,5.4,27,0.00,,---,0.00,VWS V13.01,2013-06-08 01:36:00,
2013-06-07 18:41:00,78.3,41.6,30.59,NE,45,10.5,10.5,27,0.00,,---,0.00,VWS V13.01,2013-06-08 01:41:00,
2013-06-07 18:46:00,77.9,42.2,30.59,NE,45,10.1,13.2,28,0.00,,---,0.00,VWS V13.01,2013-06-08 01:46:00,
2013-06-07 18:51:00,77.0,42.3,30.59,NE,45,10.1,10.1,29,0.00,,---,0.00,VWS V13.01,2013-06-08 01:51:00,
2013-06-07 18:56:00,77.0,43.2,30.59,North,0,9.6,10.5,30,0.00,,---,0.00,VWS V13.01,2013-06-08 01:56:00,
2013-06-07 19:01:00,77.2,42.5,30.59,North,0,10.1,10.1,29,0.00,,---,0.00,VWS V13.01,2013-06-08 02:01:00,
2013-06-07 19:07:00,76.8,43.1,30.59,North,0,10.1,10.1,30,0.00,,---,0.00,VWS V13.01,2013-06-08 02:07:00,
2013-06-07 19:12:00,75.9,42.3,30.59,NE,45,10.5,10.5,30,0.00,,---,0.00,VWS V13.01,2013-06-08 02:12:00,
2013-06-07 19:17:00,75.6,42.0,30.62,NE,45,11.4,11.4,30,0.00,,---,0.00,VWS V13.01,2013-06-08 02:17:00,
2013-06-07 19:22:00,75.2,42.5,30.62,NE,45,11.4,11.4,31,0.00,,---,0.00,VWS V13.01,2013-06-08 02:22:00,
2013-06-07 19:27:00,74.8,42.2,30.62,North,0,8.1,8.1,31,0.00,,---,0.00,VWS V13.01,2013-06-08 02:27:00,
2013-06-07 19:32:00,74.5,41.9,30.62,NE,45,7.6,7.6,31,0.00,,---,0.00,VWS V13.01,2013-06-08 02:32:00,
2013-06-07 19:38:00,74.1,41.6,30.62,North,0,8.3,8.3,31,0.00,,---,0.00,VWS V13.01,2013-06-08 02:38:00,
2013-06-07 19:43:00,73.8,41.3,30.62,North,0,8.3,8.3,31,0.00,,---,0.00,VWS V13.01,2013-06-08 02:43:00,
2013-06-07 19:48:00,73.2,41.6,30.62,North,0,15.0,15.0,32,0.00,,---,0.00,VWS V13.01,2013-06-08 02:48:00,
2013-06-07 19:53:00,72.9,41.3,30.62,North,0,15.0,15.0,32,0.00,,---,0.00,VWS V13.01,2013-06-08 02:53:00,
2013-06-07 19:58:00,72.7,41.2,30.62,North,0,15.0,15.0,32,0.00,,---,0.00,VWS V13.01,2013-06-08 02:58:00,
2013-06-07 20:04:00,72.1,41.5,30.62,North,0,5.8,6.3,33,0.00,,---,0.00,VWS V13.01,2013-06-08 03:04:00,
2013-06-07 20:09:00,71.6,41.0,30.62,NNW,338,7.6,7.6,33,0.00,,---,0.00,VWS V13.01,2013-06-08 03:09:00,
2013-06-07 20:14:00,71.4,41.6,30.62,North,0,8.1,8.1,34,0.00,,---,0.00,VWS V13.01,2013-06-08 03:14:00,
2013-06-07 20:19:00,71.1,42.0,30.62,NNW,338,7.6,7.6,35,0.00,,---,0.00,VWS V13.01,2013-06-08 03:19:00,
2013-06-07 20:24:00,70.7,41.7,30.62,NW,315,4.5,5.4,35,0.00,,---,0.00,VWS V13.01,2013-06-08 03:24:00,
2013-06-07 20:29:00,70.3,42.2,30.62,North,0,8.1,8.1,36,0.00,,---,0.00,VWS V13.01,2013-06-08 03:29:00,
2013-06-07 20:34:00,70.2,42.0,30.62,North,0,10.5,10.5,36,0.00,,---,0.00,VWS V13.01,2013-06-08 03:34:00,
2013-06-07 20:39:00,69.8,42.4,30.62,NE,45,7.6,8.1,37,0.00,,---,0.00,VWS V13.01,2013-06-08 03:39:00,
2013-06-07 20:44:00,69.4,42.8,30.62,North,0,8.1,8.1,38,0.00,,---,0.00,VWS V13.01,2013-06-08 03:44:00,
2013-06-07 20:49:00,69.1,43.1,30.62,NNE,22,8.1,8.1,39,0.00,,---,0.00,VWS V13.01,2013-06-08 03:49:00,
2013-06-07 20:54:00,68.7,42.8,30.62,NNE,22,8.7,8.7,39,0.00,,---,0.00,VWS V13.01,2013-06-08 03:54:00,
2013-06-07 20:59:00,68.4,43.1,30.62,North,0,6.3,8.3,40,0.00,,---,0.00,VWS V13.01,2013-06-08 03:59:00,
2013-06-07 21:01:00,68.4,43.1,30.62,North,0,5.8,10.1,40,0.00,,---,0.00,VWS V13.01,2013-06-08 04:01:00,
2013-06-07 21:02:00,68.4,43.1,30.62,North,0,10.5,10.5,40,0.00,,---,0.00,VWS V13.01,2013-06-08 04:02:00,
2013-06-07 21:07:00,68.4,43.1,30.62,North,0,6.3,6.3,40,0.00,,---,0.00,VWS V13.01,2013-06-08 04:07:00,
2013-06-07 21:12:00,67.6,43.1,30.62,North,0,4.9,4.9,41,0.00,,---,0.00,VWS V13.01,2013-06-08 04:12:00,
2013-06-07 21:17:00,67.5,43.0,30.62,North,0,3.1,3.1,41,0.00,,---,0.00,VWS V13.01,2013-06-08 04:17:00,
2013-06-07 21:22:00,67.5,43.0,30.62,North,0,3.1,4.5,41,0.00,,---,0.00,VWS V13.01,2013-06-08 04:22:00,
2013-06-07 21:27:00,67.1,42.6,30.62,North,0,8.3,9.2,41,0.00,,---,0.00,VWS V13.01,2013-06-08 04:27:00,
2013-06-07 21:32:00,67.1,42.0,30.62,West,270,7.6,10.1,40,0.00,,---,0.00,VWS V13.01,2013-06-08 04:32:00,
2013-06-07 21:37:00,66.9,41.8,30.62,North,0,8.3,8.3,40,0.00,,---,0.00,VWS V13.01,2013-06-08 04:37:00,
2013-06-07 21:42:00,66.6,41.5,30.62,NE,45,7.2,7.2,40,0.00,,---,0.00,VWS V13.01,2013-06-08 04:42:00,
2013-06-07 21:47:00,66.2,41.2,30.62,NE,45,4.9,8.1,40,0.00,,---,0.00,VWS V13.01,2013-06-08 04:47:00,
2013-06-07 21:52:00,66.2,41.2,30.65,NE,45,4.0,4.0,40,0.00,,---,0.00,VWS V13.01,2013-06-08 04:52:00,
2013-06-07 21:57:00,65.5,41.2,30.65,NE,45,2.7,2.7,41,0.00,,---,0.00,VWS V13.01,2013-06-08 04:57:00,
2013-06-07 22:02:00,65.1,40.9,30.65,NE,45,3.1,3.1,41,0.00,,---,0.00,VWS V13.01,2013-06-08 05:02:00,
2013-06-07 22:07:00,64.9,40.7,30.65,NE,45,3.6,3.6,41,0.00,,---,0.00,VWS V13.01,2013-06-08 05:07:00,
2013-06-07 22:12:00,64.6,41.0,30.65,NE,45,2.2,2.2,42,0.00,,---,0.00,VWS V13.01,2013-06-08 05:12:00,
2013-06-07 22:17:00,64.4,41.4,30.65,NE,45,2.7,2.7,43,0.00,,---,0.00,VWS V13.01,2013-06-08 05:17:00,
2013-06-07 22:22:00,63.9,41.5,30.65,NE,45,4.0,4.0,44,0.00,,---,0.00,VWS V13.01,2013-06-08 05:22:00,
2013-06-07 22:27:00,63.9,41.5,30.68,NE,45,2.7,3.6,44,0.00,,---,0.00,VWS V13.01,2013-06-08 05:27:00,
2013-06-07 22:32:00,63.7,42.0,30.68,North,0,4.9,4.9,45,0.00,,---,0.00,VWS V13.01,2013-06-08 05:32:00,
2013-06-07 22:37:00,63.5,41.8,30.68,North,0,3.1,3.1,45,0.00,,---,0.00,VWS V13.01,2013-06-08 05:37:00,
2013-06-07 22:42:00,63.1,42.0,30.68,NE,45,2.7,2.7,46,0.00,,---,0.00,VWS V13.01,2013-06-08 05:42:00,
2013-06-07 22:47:00,62.6,42.1,30.68,NE,45,0.0,0.0,47,0.00,,---,0.00,VWS V13.01,2013-06-08 05:47:00,
2013-06-07 22:52:00,62.4,42.5,30.68,NE,45,2.2,2.2,48,0.00,,---,0.00,VWS V13.01,2013-06-08 05:52:00,
2013-06-07 22:57:00,61.7,41.8,30.68,NE,45,0.0,0.0,48,0.00,,---,0.00,VWS V13.01,2013-06-08 05:57:00,
2013-06-07 23:02:00,61.3,41.5,30.68,NE,45,0.0,0.0,48,0.00,,---,0.00,VWS V13.01,2013-06-08 06:02:00,
2013-06-07 23:07:00,60.8,41.5,30.68,NE,45,0.0,0.0,49,0.00,,---,0.00,VWS V13.01,2013-06-08 06:07:00,
2013-06-07 23:12:00,60.4,42.2,30.68,NE,45,2.7,3.1,51,0.00,,---,0.00,VWS V13.01,2013-06-08 06:12:00,
2013-06-07 23:17:00,60.1,41.9,30.68,NE,45,0.0,0.0,51,0.00,,---,0.00,VWS V13.01,2013-06-08 06:17:00,
2013-06-07 23:22:00,59.5,42.4,30.68,NE,45,0.0,0.0,53,0.00,,---,0.00,VWS V13.01,2013-06-08 06:22:00,
2013-06-07 23:27:00,59.5,42.4,30.68,NE,45,0.0,0.0,53,0.00,,---,0.00,VWS V13.01,2013-06-08 06:27:00,
2013-06-07 23:32:00,58.1,42.5,30.68,NE,45,0.0,0.0,56,0.00,,---,0.00,VWS V13.01,2013-06-08 06:32:00,
2013-06-07 23:37:00,58.1,43.4,30.68,NE,45,0.0,0.0,58,0.00,,---,0.00,VWS V13.01,2013-06-08 06:37:00,
2013-06-07 23:42:00,57.7,43.1,30.68,NE,45,0.0,0.0,58,0.00,,---,0.00,VWS V13.01,2013-06-08 06:42:00,
2013-06-07 23:47:00,57.0,42.0,30.68,NE,45,0.0,0.0,57,0.00,,---,0.00,VWS V13.01,2013-06-08 06:47:00,
2013-06-07 23:52:00,56.7,43.0,30.68,NE,45,0.0,0.0,60,0.00,,---,0.00,VWS V13.01,2013-06-08 06:52:00,
2013-06-07 23:57:00,56.5,42.8,30.68,NE,45,2.7,2.7,60,0.00,,---,0.00,VWS V13.01,2013-06-08 06:57:00,